1496851200.3,23529,19.19,73890.8,4.43,0.51,-0.49,0,*55
1496851201.5,23530,19.19,73888.8,4.41,0.55,-0.53,0,*50
1496851202.72,23531,19.19,73890.3,4.43,0.41,-0.57,0,*52
1496851203.95,23532,19.19,73890.3,4.43,-0.11,-1.01,0,*4B
1496851205.14,23533,19.19,73886.5,4.41,0.09,-0.97,0,*62
1496851206.36,23534,19.25,73894.5,4.43,0.05,-0.93,0,*6F
1496851207.56,23535,19.19,73890.0,4.41,-0.03,-1.01,0,*7D
1496851208.76,23536,19.19,73890.0,4.41,-0.11,-1.13,0,*4E
1496851210.0,23537,19.19,73888.0,4.43,0.13,-0.97,0,*5F
1496851211.22,23538,19.19,73888.5,4.43,-0.07,-1.09,0,*7E
1496851212.43,23539,19.19,73890.8,4.43,0.05,-0.85,0,*65
1496851213.62,23540,19.19,73888.0,4.41,0.41,-0.61,0,*53
1496851214.84,23541,19.19,73888.0,4.43,0.29,-0.61,0,*5E
1496851216.05,23542,19.19,73888.3,4.43,0.29,-0.61,0,*5D
1496851217.24,23543,19.19,73890.3,4.45,0.37,-0.61,0,*55
1496851218.44,23544,19.19,73890.0,4.45,0.47,-0.57,0,*50
1496851219.65,23545,19.19,73888.3,4.47,0.33,-0.65,0,*51
1496851220.86,23546,19.19,73888.8,4.45,0.17,-0.85,0,*58
1496851222.07,23547,19.19,73886.8,4.45,0.17,-0.93,0,*5E
1496851223.27,23548,19.19,73890.3,4.45,0.25,-0.81,0,*53
1496851224.46,23549,19.19,73890.3,4.45,0.47,-0.61,0,*58
1496851225.69,23550,19.19,73890.5,4.47,0.71,-0.33,0,*50
1496851226.92,23551,19.19,73890.0,4.47,0.71,-0.41,0,*54
1496851228.14,23552,19.19,73888.5,4.51,0.75,-0.37,0,*55
1496851229.36,23553,19.19,73888.3,4.49,0.95,-0.23,0,*56
1496851230.57,23554,19.19,73886.3,4.51,0.97,-0.19,0,*53
1496851231.75,23555,19.19,73890.0,4.53,1.05,-0.19,0,*6A
1496851232.99,23556,19.19,73888.0,4.53,1.09,-0.27,0,*68
1496851234.22,23557,19.19,73886.8,4.55,1.01,-0.23,0,*63
1496851235.43,23558,19.19,73890.0,4.55,1.01,-0.15,0,*69
1496851236.63,23559,19.19,73884.0,4.57,1.17,0.01,0,*75
1496851237.83,23560,19.19,73888.3,4.61,1.25,0.09,0,*73
1496851239.02,23561,19.19,73888.3,4.65,1.41,0.25,0,*4A
1496851240.27,23562,19.19,73884.5,4.63,1.51,0.37,0,*4D
1496851241.47,23563,19.19,73890.8,4.65,1.55,0.43,0,*4D
1496851242.7,23564,19.19,73884.3,4.69,1.55,0.37,0,*45
1496851243.93,23565,19.19,73884.5,4.69,1.37,0.33,0,*44
1496851245.12,23566,19.19,73888.3,4.69,1.41,0.33,0,*46
1496851246.32,23567,19.19,73888.0,4.73,1.17,0.05,0,*7A
1496851247.5,23568,19.19,73886.8,4.73,0.97,-0.07,0,*63
1496851248.73,23569,19.19,73890.8,4.73,1.21,0.25,0,*43
1496851249.97,23570,19.19,73884.3,4.77,1.37,0.47,0,*4C
1496851251.19,23571,19.19,73884.5,4.77,1.71,0.71,0,*4A
1496851252.39,23572,19.19,73884.8,4.81,1.75,0.87,0,*4D
1496851253.6,23573,19.19,73884.3,4.81,1.85,1.01,0,*7C
1496851254.85,23574,19.19,73884.8,4.87,2.05,1.21,0,*74
1496851256.08,23575,19.19,73886.8,4.89,2.17,1.37,0,*7F
1496851257.31,23576,19.19,73886.0,4.93,2.13,1.41,0,*72
1496851258.55,23577,19.19,73886.5,4.93,1.51,0.67,0,*43
1496851259.76,23578,19.19,73888.3,4.95,1.17,0.43,0,*4E
1496851260.96,23579,19.19,73888.3,4.95,1.05,0.33,0,*4B
1496851262.21,23580,19.19,73890.0,4.97,0.91,0.17,0,*75
1496851263.43,23581,19.19,73884.0,4.97,0.71,0.09,0,*45
1496851264.62,23582,19.19,73888.3,4.99,0.51,-0.03,0,*6D
1496851265.83,23583,19.19,73884.3,4.99,0.47,-0.15,0,*5C
1496851267.05,23584,19.19,73884.3,4.97,0.29,-0.19,0,*51
1496851268.26,23585,19.19,73886.0,4.97,0.33,-0.07,0,*64
1496851269.48,23586,19.19,73886.8,4.97,0.29,-0.07,0,*6C
1496851270.69,23587,19.19,73886.0,4.99,0.25,-0.11,0,*58
1496851271.86,23588,19.19,73884.3,4.99,0.01,-0.37,0,*65
1496851273.04,23589,19.19,73884.8,4.99,-0.03,-0.33,0,*4F
1496851274.24,23590,19.19,73886.5,4.99,-0.03,-0.27,0,*42
1496851275.44,23591,19.19,73890.0,4.99,-0.11,-0.33,0,*75
1496851276.62,23592,19.19,73888.5,4.99,-0.11,-0.33,0,*76
1496851277.81,23593,19.19,73888.0,4.99,-0.15,-0.37,0,*77
1496851279.02,23594,19.19,73890.3,4.99,-0.23,-0.37,0,*75
1496851280.26,23595,19.19,73886.8,4.97,-0.27,-0.41,0,*7F
1496851281.44,23596,19.19,73890.0,4.99,-0.33,-0.41,0,*77
1496851282.65,23597,19.19,73884.8,4.97,-0.45,-0.57,0,*7E
1496851283.83,23598,19.19,73886.0,4.99,-0.33,-0.53,0,*7A
1496851285.01,23599,19.19,73890.8,4.99,-0.49,-0.61,0,*77
1496851286.18,23600,19.19,73888.8,4.99,-0.61,-0.65,0,*7A
1496851287.37,23601,19.19,73886.5,4.99,-0.77,-0.77,0,*7F
1496851288.58,23602,19.19,73884.3,4.99,-0.85,-0.73,0,*75
1496851289.81,23603,19.19,73884.3,4.99,-0.97,-0.97,0,*7D
1496851291.02,23604,19.19,73888.3,4.97,-0.69,-0.77,0,*7B
1496851292.2,23605,19.19,73888.0,4.99,-0.77,-0.65,0,*78
1496851293.45,23606,19.19,73888.3,4.97,-0.93,-0.89,0,*7D
1496851294.69,23607,19.19,73888.0,4.97,-0.93,-0.89,0,*7C
1496851295.89,23608,19.19,73888.8,4.97,-0.69,-0.65,0,*74
1496851297.1,23609,19.19,73890.0,4.97,-0.69,-0.53,0,*70
1496851298.28,23610,19.19,73888.0,4.99,-0.61,-0.41,0,*7D
1496851299.47,23611,19.19,73886.5,4.99,-0.61,-0.41,0,*7C
1496851300.67,23612,19.19,73888.3,4.97,-0.77,-0.57,0,*71
1496851301.86,23613,19.19,73884.8,4.99,-0.65,-0.49,0,*72
1496851303.04,23614,19.19,73884.5,4.99,-0.65,-0.65,0,*7B
1496851304.27,23615,19.19,73886.0,4.97,-0.77,-0.89,0,*75
1496851305.47,23616,19.19,73890.3,4.97,-0.69,-0.69,0,*77
1496851306.65,23617,19.19,73886.5,4.99,-0.61,-0.65,0,*7C
1496851307.85,23618,19.19,73886.5,4.97,-0.57,-0.77,0,*7B
1496851309.04,23619,19.19,73890.0,4.99,-0.53,-0.77,0,*70
1496851310.25,23620,19.19,73888.0,4.97,-0.45,-0.77,0,*73
1496851311.46,23621,19.19,73884.3,4.99,-0.65,-1.05,0,*4A
1496851312.69,23622,19.19,73888.3,4.97,-0.69,-1.01,0,*4F
1496851313.92,23623,19.19,73884.3,4.97,-0.69,-1.01,0,*4E
1496851315.13,23624,19.19,73890.8,4.97,-0.53,-0.81,0,*79
1496851316.33,23625,19.19,73888.5,4.95,-0.65,-0.93,0,*7C
1496851317.54,23626,19.19,73888.3,4.95,-0.57,-0.93,0,*7E
1496851318.73,23627,19.19,73884.0,4.99,-0.41,-0.77,0,*7E
1496851319.94,23628,19.25,73890.8,4.97,-0.45,-0.77,0,*7B
1496851321.13,23629,19.19,73884.0,4.99,-0.61,-0.85,0,*7F
1496851322.34,23630,19.19,73888.3,4.97,-0.45,-0.69,0,*7D
1496851323.54,23631,19.19,73886.5,4.97,-0.41,-0.69,0,*78
1496851324.72,23632,19.19,73884.0,4.99,-0.49,-0.65,0,*71
1496851325.93,23633,19.19,73884.8,4.97,-0.57,-0.69,0,*7D
1496851327.11,23634,19.19,73884.3,4.99,-0.41,-0.65,0,*7F
1496851328.32,23635,19.19,73886.3,4.97,-0.57,-0.69,0,*7B
1496851329.52,23636,19.19,73884.8,4.97,-0.57,-0.65,0,*74
1496851330.69,23637,19.19,73886.5,4.99,-0.49,-0.61,0,*70
1496851331.9,23638,19.19,73884.0,4.97,-0.65,-0.69,0,*77
1496851333.1,23639,19.19,73888.0,4.97,-0.57,-0.69,0,*77
1496851334.3,23640,19.19,73884.3,4.97,-0.65,-0.65,0,*74
1496851335.51,23641,19.19,73886.0,4.97,-0.69,-0.77,0,*7A
1496851336.72,23642,19.19,73886.3,4.97,-0.65,-0.77,0,*75
1496851337.93,23643,19.19,73886.0,4.97,-0.69,-0.77,0,*78
1496851339.11,23644,19.19,73882.5,4.99,-0.65,-0.65,0,*7E
1496851340.31,23645,19.19,73884.8,4.97,-0.81,-0.81,0,*71
1496851341.5,23646,19.19,73886.3,4.95,-0.77,-0.77,0,*70
1496851342.69,23647,19.19,73882.8,4.95,-0.57,-0.41,0,*76
1496851343.89,23648,19.19,73886.0,4.95,-0.57,-0.41,0,*79
1496851345.07,23649,19.19,73886.5,4.95,-0.65,-0.53,0,*7A
1496851346.28,23650,19.19,73886.5,4.97,-0.65,-0.41,0,*73
1496851347.47,23651,19.19,73884.8,4.95,-0.65,-0.45,0,*74
1496851348.65,23652,19.19,73888.0,4.95,-0.65,-0.45,0,*77
1496851349.84,23653,19.19,73884.3,4.95,-0.77,-0.45,0,*75
1496851351.04,23654,19.19,73884.0,4.93,-0.61,-0.33,0,*72
1496851352.23,23655,19.19,73884.3,4.95,-0.57,-0.37,0,*74
1496851353.42,23656,19.19,73884.8,4.95,-0.57,-0.29,0,*78
1496851354.6,23657,19.19,73886.5,4.95,-0.53,-0.19,0,*7E
1496851355.79,23658,19.19,73884.8,4.95,-0.53,-0.19,0,*71
1496851356.98,23659,19.19,73886.3,4.95,-0.57,-0.15,0,*78
1496851358.18,23660,19.19,73884.8,4.93,-0.61,-0.29,0,*7E
1496851359.37,23661,19.19,73884.8,4.95,-0.53,-0.15,0,*77
1496851360.56,23662,19.19,73886.8,4.95,-0.65,-0.37,0,*71
1496851361.75,23663,19.19,73886.0,4.95,-0.69,-0.37,0,*7C
1496851362.96,23664,19.19,73886.3,4.95,-0.89,-0.57,0,*73
1496851364.15,23665,19.19,73884.0,4.95,-0.57,-0.19,0,*7B
1496851365.34,23666,19.19,73886.0,4.95,-0.57,-0.15,0,*74
1496851366.54,23667,19.19,73884.8,4.93,-0.61,-0.19,0,*7A
1496851367.73,23668,19.19,73884.3,4.95,-0.65,-0.15,0,*7B
1496851368.96,23669,19.19,73884.5,4.93,-0.61,-0.23,0,*7D
1496851370.2,23670,19.19,73886.3,4.93,-0.69,-0.23,0,*7D
1496851371.38,23671,19.19,73886.5,4.95,-0.61,-0.19,0,*7B
1496851372.59,23672,19.19,73886.0,4.93,-0.69,-0.19,0,*76
1496851373.8,23673,19.19,73884.5,4.93,-0.61,-0.11,0,*77
1496851375.01,23674,19.19,73884.0,4.93,-0.49,-0.07,0,*4D
1496851376.21,23675,19.19,73884.0,4.93,-0.41,0.01,0,*6F
1496851377.41,23676,19.19,73886.3,4.93,-0.45,0.01,0,*68
1496851378.62,23677,19.19,73884.8,4.93,-0.41,0.01,0,*6D
1496851379.82,23678,19.19,73882.8,4.93,-0.41,0.05,0,*66
1496851381.03,23679,19.19,73884.3,4.93,-0.57,-0.07,0,*4F
1496851382.24,23680,19.19,73884.3,4.93,-0.37,0.05,0,*60
1496851383.44,23681,19.19,73882.0,4.93,-0.45,0.05,0,*64
1496851384.64,23682,19.25,73888.0,4.93,-0.49,0.01,0,*6F
1496851385.86,23683,19.19,73886.5,4.91,-0.41,0.25,0,*52
1496851387.1,23684,19.19,73884.0,4.91,-0.23,0.41,0,*53
1496851388.34,23685,19.19,73886.3,4.93,-0.11,0.51,0,*50
1496851389.56,23686,19.19,73886.5,4.93,-0.07,0.51,0,*64
1496851390.79,23687,19.19,73886.3,4.93,-0.07,0.55,0,*61
1496851392.01,23688,19.19,73884.0,4.93,-0.07,0.55,0,*6E
1496851393.21,23689,19.25,73888.3,4.95,-0.03,0.59,0,*61
1496851394.4,23690,19.19,73886.3,4.95,0.05,0.67,0,*4F
1496851395.62,23691,19.19,73880.8,4.95,0.17,0.83,0,*77
1496851396.84,23692,19.19,73884.0,4.95,0.21,0.83,0,*71
1496851398.09,23693,19.19,73886.8,4.93,0.17,0.91,0,*70
1496851399.3,23694,19.19,73884.0,4.95,0.29,0.95,0,*78
1496851400.55,23695,19.19,73884.8,4.93,0.29,0.91,0,*7B
1496851401.8,23696,19.25,73886.8,4.93,0.25,0.87,0,*73
1496851403.04,23697,19.19,73886.5,4.93,0.25,0.91,0,*75
1496851404.29,23698,19.19,73884.8,4.93,0.29,0.87,0,*71
1496851405.51,23699,19.19,73882.8,4.95,0.29,0.71,0,*7F
1496851406.73,23700,19.19,73886.0,4.93,0.05,0.63,0,*45
1496851407.94,23701,19.19,73882.8,4.93,0.41,0.97,0,*7F
1496851409.16,23702,19.19,73886.8,4.95,0.41,0.91,0,*7C
1496851410.41,23703,19.19,73884.0,4.93,0.37,0.91,0,*7A
1496851411.66,23704,19.25,73890.0,4.93,0.37,0.91,0,*7D
1496851412.87,23705,19.25,73890.0,4.91,0.43,0.91,0,*7D
1496851414.1,23706,19.25,73890.0,4.91,0.25,0.67,0,*77
1496851415.34,23707,19.19,73884.8,4.91,0.29,0.79,0,*75
1496851416.54,23708,19.19,73886.3,4.91,0.41,0.97,0,*74
1496851417.7,23709,19.19,73886.0,4.89,0.43,0.97,0,*7E
1496851418.9,23710,19.19,73886.3,4.89,0.37,0.75,0,*79
1496851420.11,23711,19.19,73884.3,4.89,0.33,0.59,0,*72
1496851421.33,23712,19.19,73888.8,4.89,0.21,0.51,0,*7A
1496851422.53,23713,19.19,73886.0,4.89,0.13,0.41,0,*7B
1496851423.74,23714,19.19,73884.0,4.89,0.41,0.71,0,*78
1496851424.96,23715,19.25,73888.0,4.85,0.55,0.83,0,*7D
1496851426.21,23716,19.25,73892.3,4.87,0.55,0.83,0,*7C
1496851427.45,23717,19.19,73886.8,4.87,0.59,0.91,0,*72
1496851428.67,23718,19.19,73886.5,4.85,0.55,0.79,0,*75
1496851429.88,23719,19.25,73888.3,4.85,0.47,0.59,0,*75
1496851431.07,23720,19.19,73884.8,4.85,0.43,0.55,0,*77
1496851432.28,23721,19.19,73888.8,4.85,0.37,0.55,0,*75
1496851433.5,23722,19.25,73890.0,4.79,0.43,0.51,0,*72
1496851434.71,23723,19.19,73886.8,4.79,0.43,0.63,0,*72
1496851435.93,23724,19.19,73888.5,4.81,0.55,0.75,0,*72
1496851437.14,23725,19.19,73884.8,4.81,0.67,0.75,0,*72
1496851438.39,23726,19.19,73890.8,4.79,0.87,0.91,0,*72
1496851439.61,23727,19.19,73886.0,4.79,0.91,0.97,0,*72
1496851440.87,23728,19.19,73888.5,4.79,0.87,0.91,0,*7C
1496851442.11,23729,19.19,73888.3,4.79,0.79,0.75,0,*76
1496851443.33,23730,19.19,73888.3,4.77,0.51,0.63,0,*7D
1496851444.55,23731,19.19,73886.5,4.77,0.59,0.63,0,*74
1496851445.79,23732,19.19,73886.3,4.75,0.71,0.79,0,*74
1496851447.01,23733,19.19,73886.5,4.79,0.91,0.97,0,*77
1496851448.2,23734,19.19,73890.0,4.77,0.95,0.97,0,*7A
1496851449.44,23735,19.19,73890.0,4.75,0.91,0.95,0,*7F
1496851450.63,23736,19.25,73890.0,4.77,0.95,0.97,0,*78
1496851451.84,23737,19.19,73884.3,4.77,1.01,1.13,0,*78
1496851453.04,23738,19.19,73888.8,4.77,0.97,1.09,0,*42
1496851454.25,23739,19.19,73886.5,4.77,1.01,1.09,0,*7D
1496851455.43,23740,19.19,73886.5,4.77,0.97,1.01,0,*45
1496851456.63,23741,19.19,73886.5,4.77,1.01,1.09,0,*72
1496851457.83,23742,19.19,73886.8,4.75,0.97,1.05,0,*41
1496851459.07,23743,19.19,73890.3,4.75,0.95,0.95,0,*7A
1496851460.26,23744,19.19,73886.8,4.77,0.95,0.97,0,*7D
1496851461.43,23745,19.19,73890.0,4.77,0.97,0.97,0,*7E
1496851462.65,23746,19.19,73884.8,4.75,0.95,0.97,0,*7D
1496851463.89,23747,19.25,73890.0,4.75,0.83,0.83,0,*7E
1496851465.14,23748,19.19,73888.3,4.75,0.91,0.95,0,*75
1496851466.39,23749,19.19,73888.8,4.75,1.09,1.17,0,*7F
1496851467.65,23750,19.19,73888.8,4.75,1.09,1.09,0,*78
1496851468.89,23751,19.19,73888.0,4.77,1.21,1.13,0,*7A
1496851470.14,23752,19.19,73886.5,4.75,0.95,0.91,0,*7E
1496851471.36,23753,19.19,73886.8,4.73,0.71,0.59,0,*77
1496851472.6,23754,19.19,73890.5,4.75,0.59,0.55,0,*70
1496851473.85,23755,19.19,73886.8,4.75,0.91,0.83,0,*7E
1496851475.1,23756,19.25,73890.0,4.75,0.79,0.71,0,*76
1496851476.34,23757,19.19,73890.3,4.75,0.83,0.79,0,*7A
1496851477.51,23758,19.19,73888.8,4.73,1.05,1.05,0,*76
1496851478.75,23759,19.19,73886.3,4.73,1.21,1.17,0,*72
1496851479.98,23760,19.19,73888.3,4.73,1.21,1.17,0,*78
1496851481.22,23761,19.25,73892.0,4.73,1.21,1.21,0,*7C
1496851482.49,23762,19.19,73890.0,4.75,1.21,1.21,0,*79
1496851483.75,23763,19.25,73890.0,4.75,1.21,1.17,0,*7D
1496851485.01,23764,19.19,73890.5,4.75,1.21,1.17,0,*7A
1496851486.27,23765,19.19,73890.8,4.75,1.29,1.21,0,*76
1496851487.53,23766,19.19,73890.0,4.75,1.29,1.17,0,*70
1496851488.76,23767,19.19,73890.5,4.75,1.17,1.05,0,*7F
1496851490.01,23768,19.19,73888.8,4.75,0.91,0.71,0,*7D
1496851491.26,23769,19.19,73888.3,4.75,0.55,0.47,0,*71
1496851492.5,23770,19.19,73888.3,4.75,0.83,0.79,0,*7F
1496851493.75,23771,19.19,73886.8,4.75,0.95,0.83,0,*7C
1496851494.98,23772,19.19,73884.8,4.75,1.09,1.05,0,*74
1496851496.24,23773,19.25,73890.0,4.75,1.21,1.17,0,*7C
1496851497.44,23774,19.19,73888.8,4.73,1.41,1.21,0,*7E
1496851498.68,23775,19.19,73890.8,4.73,1.29,1.21,0,*71
1496851499.93,23776,19.19,73890.0,4.75,1.09,0.95,0,*48
1496851501.16,23777,19.19,73888.3,4.75,1.09,1.05,0,*71
1496851502.4,23778,19.19,73886.8,4.77,1.25,1.21,0,*74
1496851503.63,23779,19.19,73888.8,4.77,1.25,1.13,0,*74
1496851504.86,23780,19.25,73892.3,4.77,1.25,1.09,0,*79
1496851506.1,23781,19.19,73890.8,4.77,1.29,1.21,0,*7E
1496851507.34,23782,19.19,73888.3,4.77,1.33,1.13,0,*77
1496851508.55,23783,19.19,73890.5,4.77,1.21,1.01,0,*76
1496851509.81,23784,19.19,73888.3,4.79,1.29,1.13,0,*74
1496851511.07,23785,19.25,73890.3,4.75,1.21,1.21,0,*70
1496851512.31,23786,19.19,73890.3,4.77,1.33,1.25,0,*76
1496851513.54,23787,19.25,73890.3,4.77,1.25,1.21,0,*74
1496851514.77,23788,19.19,73888.3,4.81,1.29,1.25,0,*7A
1496851516.03,23789,19.19,73890.5,4.79,1.37,1.25,0,*73
1496851517.23,23790,19.19,73890.3,4.81,1.17,0.97,0,*46
1496851518.46,23791,19.19,73890.3,4.81,0.87,0.75,0,*73
1496851519.71,23792,19.19,73890.5,4.79,0.91,0.79,0,*7C
1496851520.92,23793,19.25,73890.0,4.81,0.87,0.79,0,*7D
1496851522.16,23794,19.25,73890.8,4.79,0.67,0.63,0,*78
1496851523.36,23795,19.19,73890.5,4.79,1.05,1.01,0,*79
1496851524.59,23796,19.19,73888.5,4.81,1.17,1.13,0,*7D
1496851525.84,23797,19.19,73888.5,4.79,0.91,0.79,0,*79
1496851527.07,23798,19.19,73884.8,4.79,1.13,0.97,0,*4D
1496851528.3,23799,19.19,73888.5,4.81,1.29,1.25,0,*7A
1496851529.54,23800,19.19,73886.5,4.81,1.29,1.17,0,*74
1496851530.8,23801,19.19,73890.8,4.79,1.29,1.13,0,*76
1496851532.0,23802,19.19,73890.5,4.81,1.25,1.05,0,*79
1496851533.2,23803,19.19,73888.5,4.81,1.17,0.97,0,*43
1496851534.4,23804,19.19,73890.8,4.81,1.01,0.91,0,*45
1496851535.57,23805,19.19,73888.5,4.81,1.05,0.97,0,*46
1496851536.78,23806,19.19,73888.3,4.81,1.13,1.01,0,*7C
1496851537.96,23807,19.19,73888.8,4.81,1.05,1.05,0,*7E
1496851539.14,23808,19.19,73890.0,4.81,1.05,1.01,0,*75
1496851540.31,23809,19.19,73888.3,4.81,1.05,0.97,0,*4A
1496851541.51,23810,19.19,73890.5,4.81,1.01,0.91,0,*40
1496851542.71,23811,19.19,73890.0,4.85,0.97,0.91,0,*7B
1496851543.9,23812,19.19,73890.8,4.85,1.05,0.95,0,*46
1496851545.13,23813,19.19,73888.5,4.85,1.09,0.95,0,*4B
1496851546.33,23814,19.19,73886.0,4.85,1.17,1.01,0,*7F
1496851547.53,23815,19.19,73888.5,4.85,1.05,0.95,0,*41
1496851548.7,23816,19.19,73890.0,4.85,1.05,1.01,0,*7E
1496851549.9,23817,19.19,73888.5,4.85,1.01,0.91,0,*43
1496851551.11,23818,19.19,73890.8,4.85,1.01,0.91,0,*4C
1496851552.3,23819,19.19,73890.8,4.85,1.01,0.95,0,*49
1496851553.5,23820,19.19,73890.8,4.85,1.01,0.83,0,*44
1496851554.71,23821,19.19,73890.5,4.85,1.17,1.01,0,*79
1496851555.97,23822,19.19,73890.0,4.87,1.21,1.09,0,*75
1496851557.23,23823,19.19,73888.3,4.87,1.29,1.17,0,*73
1496851558.49,23824,19.19,73888.0,4.87,1.17,1.09,0,*76
1496851559.75,23825,19.19,73890.5,4.87,1.29,1.09,0,*7A
1496851560.96,23826,19.19,73888.0,4.85,1.01,0.91,0,*41
1496851562.18,23827,19.19,73888.5,4.87,1.05,0.95,0,*42
1496851563.38,23828,19.19,73888.8,4.89,1.13,0.97,0,*46
1496851564.57,23829,19.19,73888.8,4.89,0.97,0.83,0,*7F
1496851565.78,23830,19.25,73892.0,4.89,0.95,0.83,0,*75
1496851567.0,23831,19.19,73888.5,4.89,0.83,0.63,0,*7D
1496851568.21,23832,19.19,73888.5,4.89,0.95,0.75,0,*7E
1496851569.44,23833,19.25,73892.8,4.87,1.05,0.91,0,*43
1496851570.68,23834,19.19,73890.0,4.87,0.83,0.67,0,*72
1496851571.92,23835,19.19,73890.5,4.87,0.59,0.47,0,*76
1496851573.14,23836,19.19,73888.5,4.85,0.71,0.59,0,*72
1496851574.34,23837,19.25,73894.3,4.89,0.97,0.83,0,*70
1496851575.54,23838,19.19,73890.8,4.89,1.13,1.05,0,*7D
1496851576.77,23839,19.19,73888.5,4.89,1.21,1.09,0,*71
1496851578.0,23840,19.25,73892.0,4.89,1.25,1.09,0,*7B
1496851579.22,23841,19.19,73888.3,4.89,1.25,1.13,0,*71
1496851580.48,23842,19.25,73892.8,4.91,1.29,1.17,0,*73
1496851581.73,23843,19.19,73890.3,4.91,1.25,1.09,0,*71
1496851582.93,23844,19.19,73890.8,4.89,1.13,0.97,0,*4C
1496851584.19,23845,19.25,73890.3,4.91,1.25,1.09,0,*77
1496851585.44,23846,19.19,73888.5,4.91,1.13,1.09,0,*71
1496851586.7,23847,19.19,73890.0,4.91,1.29,1.17,0,*76
1496851587.96,23848,19.19,73888.0,4.91,1.29,1.13,0,*7D
1496851589.21,23849,19.19,73884.5,4.91,1.29,1.17,0,*78
1496851590.46,23850,19.19,73890.5,4.91,1.25,1.13,0,*78
1496851591.72,23851,19.19,73888.5,4.91,1.17,1.09,0,*73
1496851592.93,23852,19.19,73888.5,4.95,1.01,0.83,0,*40
1496851594.16,23853,19.19,73888.3,4.93,1.09,0.97,0,*4A
1496851595.42,23854,19.25,73890.0,4.93,1.25,1.13,0,*7E
1496851596.68,23855,19.19,73888.0,4.93,1.29,1.09,0,*78
1496851597.92,23856,19.19,73888.5,4.95,1.21,1.17,0,*7A
1496851599.19,23857,19.19,73888.5,4.93,1.17,1.09,0,*77
1496851600.43,23858,19.19,73890.8,4.95,1.21,1.13,0,*70
1496851601.67,23859,19.19,73890.8,4.95,1.21,1.17,0,*75
1496851602.91,23860,19.19,73890.3,4.95,1.21,1.13,0,*7B
1496851604.15,23861,19.19,73888.8,4.95,1.33,1.21,0,*78
1496851605.39,23862,19.19,73890.3,4.95,1.29,1.17,0,*75
1496851606.6,23863,19.19,73890.3,4.95,1.21,1.05,0,*7F
1496851607.81,23864,19.19,73888.8,4.95,1.13,1.01,0,*7D
1496851609.05,23865,19.19,73890.0,4.97,1.13,1.01,0,*7E
1496851610.31,23866,19.25,73892.5,4.97,1.21,1.13,0,*7F
1496851611.54,23867,19.19,73890.5,4.97,1.17,1.01,0,*78
1496851612.8,23868,19.19,73888.3,4.97,1.21,1.17,0,*75
1496851614.06,23869,19.25,73890.5,4.97,1.29,1.21,0,*79
1496851615.32,23870,19.19,73892.0,4.97,1.21,1.21,0,*79
1496851616.58,23871,19.19,73890.8,4.97,1.33,1.29,0,*73
1496851617.84,23872,19.19,73890.5,4.97,1.21,1.17,0,*7E
1496851619.04,23873,19.19,73890.0,4.99,0.97,0.95,0,*76
1496851620.28,23874,19.19,73888.5,4.97,0.95,0.83,0,*7A
1496851621.51,23875,19.25,73892.8,4.97,0.95,0.95,0,*7C
1496851622.72,23876,19.19,73890.3,4.97,1.05,1.05,0,*7F
1496851623.96,23877,19.25,73894.3,4.97,0.83,0.83,0,*7E
1496851625.16,23878,19.25,73892.8,4.97,1.01,1.01,0,*71
1496851626.41,23879,19.19,73890.3,4.97,0.91,0.83,0,*73
1496851627.66,23880,19.25,73894.3,4.97,0.79,0.83,0,*73
1496851628.9,23881,19.25,73890.8,4.97,0.79,0.83,0,*72
1496851630.14,23882,19.25,73892.0,4.97,0.83,0.79,0,*71
1496851631.36,23883,19.19,73892.8,4.97,0.95,1.01,0,*49
1496851632.56,23884,19.25,73894.3,4.95,1.01,0.95,0,*4C
1496851633.76,23885,19.19,73888.5,4.95,1.01,0.95,0,*4D
1496851634.94,23886,19.19,73892.3,4.95,1.01,1.05,0,*76
1496851636.17,23887,19.19,73892.5,4.95,0.95,0.91,0,*77
1496851637.38,23888,19.19,73888.5,4.95,0.95,0.95,0,*7C
1496851638.64,23889,19.19,73890.8,4.93,0.91,0.87,0,*7C
1496851639.9,23890,19.19,73890.0,4.93,0.91,0.87,0,*74
1496851641.15,23891,19.19,73888.8,4.93,0.91,0.91,0,*72
1496851642.38,23892,19.19,73890.3,4.95,0.95,0.91,0,*73
1496851643.63,23893,19.19,73890.8,4.93,0.87,0.75,0,*7D
1496851644.85,23894,19.19,73890.8,4.95,0.83,0.79,0,*74
1496851646.11,23895,19.19,73890.3,4.93,0.91,0.87,0,*71
1496851647.34,23896,19.19,73892.8,4.95,0.95,0.91,0,*77
1496851648.56,23897,19.19,73892.3,4.95,0.91,0.79,0,*74
1496851649.8,23898,19.25,73892.3,4.93,0.97,0.91,0,*7D
1496851651.02,23899,19.19,73892.5,4.95,0.95,0.83,0,*7B
1496851652.22,23900,19.19,73892.8,4.95,1.01,0.95,0,*41
1496851653.45,23901,19.19,73892.5,4.93,1.09,0.97,0,*4C
1496851654.71,23902,19.19,73890.5,4.93,1.25,1.09,0,*77
1496851655.98,23903,19.19,73892.5,4.93,1.13,1.09,0,*73
1496851657.23,23904,19.25,73894.3,4.93,0.91,0.87,0,*78
1496851658.5,23905,19.25,73896.3,4.93,1.13,1.09,0,*75
1496851659.73,23906,19.19,73892.3,4.93,1.41,1.25,0,*7F
1496851660.99,23907,19.19,73892.3,4.93,1.29,1.17,0,*71
1496851662.25,23908,19.19,73894.0,4.93,1.25,1.13,0,*76
1496851663.52,23909,19.25,73894.0,4.93,1.17,1.09,0,*7D
1496851664.75,23910,19.25,73894.0,4.95,1.21,0.95,0,*42
1496851665.97,23911,19.19,73892.3,4.95,0.83,0.67,0,*77
1496851667.2,23912,19.19,73894.8,4.95,0.91,0.71,0,*70
1496851668.42,23913,19.19,73890.5,4.93,0.97,0.79,0,*79
1496851669.65,23914,19.19,73890.8,4.95,0.91,0.71,0,*76
1496851670.86,23915,19.25,73892.5,4.95,1.21,1.01,0,*7B
1496851672.09,23916,19.19,73894.8,4.95,1.17,0.95,0,*41
1496851673.32,23917,19.19,73892.5,4.95,0.71,0.55,0,*7D
1496851674.54,23918,19.19,73892.5,4.95,0.79,0.67,0,*7B
1496851675.76,23919,19.19,73892.5,4.97,1.01,0.83,0,*4C
1496851676.97,23920,19.19,73892.0,4.95,1.21,1.01,0,*7D
1496851678.18,23921,19.19,73892.0,4.95,1.01,0.83,0,*45
1496851679.43,23922,19.19,73894.3,4.97,0.91,0.71,0,*71
1496851680.66,23923,19.19,73890.0,4.97,1.21,1.05,0,*78
1496851681.92,23924,19.25,73894.5,4.97,1.29,1.17,0,*74
1496851683.16,23925,19.19,73892.5,4.99,1.33,1.17,0,*70
1496851684.39,23926,19.19,73894.3,4.99,1.43,1.21,0,*71
1496851685.63,23927,19.25,73894.8,4.99,1.37,1.09,0,*79
1496851686.87,23928,19.19,73894.0,4.99,1.37,1.21,0,*7C
1496851688.13,23929,19.25,73894.5,5.01,1.09,0.87,0,*4D
1496851689.39,23930,19.19,73890.8,5.01,1.13,0.91,0,*49
1496851690.62,23931,19.25,73892.0,5.03,1.13,0.87,0,*4D
1496851691.88,23932,19.19,73892.0,5.01,1.13,0.75,0,*41
1496851693.12,23933,19.19,73892.8,5.03,1.13,0.75,0,*42
1496851694.35,23934,19.19,73890.0,5.03,1.13,0.87,0,*48
1496851695.55,23935,19.19,73894.8,5.03,1.41,1.09,0,*79
1496851696.73,23936,19.19,73894.5,5.03,1.41,1.01,0,*72
1496851697.93,23937,19.19,73892.0,5.03,1.41,1.09,0,*7B
1496851699.18,23938,19.25,73894.8,5.09,1.51,1.13,0,*74
1496851700.41,23939,19.25,73894.8,5.07,1.55,1.17,0,*7B
1496851701.64,23940,19.19,73894.0,5.09,1.51,1.01,0,*78
1496851702.9,23941,19.19,73890.8,5.09,1.33,0.91,0,*45
1496851704.11,23942,19.19,73892.0,5.09,1.41,0.95,0,*47
1496851705.33,23943,19.19,73892.0,5.09,1.41,0.95,0,*46
1496851706.54,23944,19.19,73894.3,5.09,1.41,0.95,0,*41
1496851707.79,23945,19.25,73894.0,5.09,1.33,0.95,0,*45
1496851709.05,23946,19.19,73892.5,5.09,1.29,0.91,0,*49
1496851710.3,23947,19.19,73892.0,5.13,1.09,0.67,0,*48
1496851711.55,23948,19.25,73894.8,5.13,1.21,0.87,0,*43
1496851712.81,23949,19.25,73894.8,5.13,1.63,1.21,0,*79
1496851714.05,23950,19.19,73888.8,5.13,1.59,1.21,0,*78
1496851715.31,23951,19.19,73886.0,5.13,1.37,0.91,0,*4B
1496851716.5,23952,19.25,73894.5,5.13,1.41,0.97,0,*4F
1496851717.73,23953,19.25,73894.8,5.15,1.25,0.91,0,*4C
1496851718.93,23954,19.25,73894.8,5.15,1.47,1.01,0,*77
1496851720.15,23955,19.25,73894.0,5.15,1.47,1.13,0,*75
1496851721.41,23956,19.19,73888.3,5.17,1.29,0.83,0,*44
1496851722.67,23957,19.19,73890.8,5.17,1.37,0.83,0,*4A
1496851723.93,23958,19.19,73890.0,5.17,1.37,0.91,0,*46
1496851725.18,23959,19.19,73890.3,5.17,1.29,0.79,0,*4E
1496851726.41,23960,19.25,73894.3,5.19,1.37,0.83,0,*40
1496851727.61,23961,19.19,73888.0,5.19,1.41,0.79,0,*45